ABS-2A (MONGOLSAT-1)

Last updated on Jan. 25, 2020, 4:43 a.m. UTC

1 41588U 16038A   20024.80669251 -.00000092  00000-0  00000+0 0  9990
2 41588   0.0116  84.9856 0001174 120.3538 283.3504  1.00271404 13289
UTC
Height (km)
Latitude
Longitude
Inclination
Orbital Period
UTC large
Height (km)
Speed (km/s)
/
Latitude / Longitude
Inclination (degrees)
Orbital Period (minutes)
Azimuth
Elevation
Range (km)
Doppler Factor
iOS Compass Heading
iOS Angle

Next 30 passes for location: Hong Kong

Rise time Rise Azimuth (degrees) Set time Set Azimuth (degrees) Duration Max altitude (degrees)

No matching passes for this satellites